Location: Stara Lesna
(49.1528°N, 20.2911°E)
Time: 19:08:19
(UTC+02:00)

Cosmos 1602 - Pass Details

Date: 13 July 2020
Orbit: 515 x 533 km, 82.5° (Epoch: 10 August)

Event Time Altitude Azimuth Distance (km) Brightness Sun altitude
Exits shadow 02:29:26 28° 228° (SW) 997 4.6 -15.3°
Maximum altitude 02:31:03 46° 284° (WNW) 709 4.2 -15.2°
Drops below altitude 10° 02:34:47 10° 359° (N) 1,764 7.4 -14.9°
Sets 02:37:00 0° 5° (N) 2,660 8.7 -14.8°
